#timestamp,LO_Frequency,Hit,StdDev 
1643202015.6,286047000.6,N
1643202035.4,286046999.9,N
1643202055.3,286047000.1,N
1643202075.1,286047000.1,N
1643202076.0,286047000.1,N
1643202095.8,286047001.8,N
1643202115.7,286047002.6,N
1643202135.5,286047000.2,N
1643202155.3,286046999.7,N
1643202175.2,286047001.6,N
1643202195.0,286047000.1,N
1643202195.9,286047000.1,N
1643202215.8,286047002.4,N
1643202235.6,286047003.9,Y
1643202255.4,286047002.5,P
1643202275.3,286047000.5,N
1643202295.1,286046999.7,N
1643202315.9,286047002.2,N
1643202335.7,286047002.5,N
1643202355.5,286047002.7,N
1643202375.4,286047002.4,N
1643202395.2,286047000.2,N
1643202415.0,286046999.7,N
1643202415.9,286046999.7,N
1643202435.8,286047000.4,N
1643202455.6,286047000.1,N
1643202475.5,286046999.9,N
1643202495.3,286047000.0,N
1643202515.1,286046998.1,N
1643202535.9,286046998.3,N
1643202555.7,286046998.3,N
1643202575.5,286047000.4,N
1643202595.4,286047000.5,N
1643202615.2,286047000.8,N
1643202635.1,286046999.8,N
1643202636.0,286046999.8,N
1643202655.8,286047003.6,N
1643202675.6,286047004.3,Y
1643202695.5,286047002.7,P
1643202715.3,286047001.6,N
1643202735.2,286047002.5,N
1643202755.9,286047003.6,Y
1643202775.7,286047001.0,P
1643202795.6,286047000.6,N
1643202815.4,286047000.5,N
1643202835.2,286046998.5,N
1643202855.1,286046998.7,N
1643202856.0,286046998.7,N
1643202875.8,286047001.2,N
1643202895.7,286047000.8,N
1643202915.5,286046998.4,N
1643202935.3,286046998.6,N
1643202955.2,286047000.7,N
1643202975.0,286047000.3,N
1643202975.9,286047000.3,N
1643202995.8,286047000.1,N
1643203015.6,286047000.4,N
1643203035.4,286047000.6,N
1643203055.3,286046999.8,N
1643203075.1,286047000.8,N
1643203095.8,286047001.0,N
1643203115.7,286046998.2,N
1643203135.5,286047000.8,N
1643203155.4,286047000.5,N
1643203175.2,286047000.2,N
1643203195.0,286046999.8,N
1643203195.9,286046999.8,N
1643203215.8,286047000.9,N
1643203235.6,286047000.2,N
1643203255.4,286047001.2,N
1643203275.3,286047000.7,N
1643203295.1,286047000.6,N
1643203315.9,286046999.7,N
1643203335.7,286047000.5,N
1643203355.5,286047001.1,N
1643203375.4,286047000.3,N
1643203395.2,286047000.1,N
1643203415.1,286047002.8,Y
1643203416.0,286047002.8,P
1643203435.8,286047002.5,N
1643203455.6,286046999.7,N
1643203475.5,286047002.8,N
1643203495.3,286047001.1,N
1643203515.1,286047000.9,N
1643203535.9,286047000.1,N
1643203555.7,286047000.4,N
1643203575.6,286047001.1,N
1643203595.4,286046998.2,N
1643203615.2,286046998.8,N
1643203635.1,286047001.2,N
1643203636.0,286047001.2,N
1643203655.8,286047000.7,N
1643203675.6,286046998.6,N
1643203695.5,286046999.4,N
1643203715.3,286047000.8,N
1643203735.2,286047000.7,N
1643203755.9,286047002.5,N
1643203775.7,286047001.2,N
1643203795.6,286047000.7,N
1643203815.4,286047000.1,N
1643203835.2,286047000.8,N
1643203855.1,286047000.4,N
1643203856.0,286047000.4,N
1643203875.8,286047000.3,N
1643203895.7,286047000.5,N
1643203915.5,286047000.0,N
1643203935.3,286047000.9,N
1643203955.2,286047000.4,N
1643203975.0,286047000.1,N
1643203975.9,286047000.1,N
1643203995.8,286047001.1,N
1643204015.6,286046999.3,N
1643204035.4,286046997.2,Y
1643204055.3,286046997.5,P
1643204075.1,286046994.9,P
1643204095.8,286046997.1,N
1643204115.7,286046997.0,N
1643204135.5,286046997.5,N
1643204155.4,286046998.0,N
1643204175.2,286046997.6,N
1643204195.0,286046994.9,Y
1643204195.9,286046994.9,P
1643204215.8,286046998.2,N
1643204235.6,286047001.1,N
1643204255.4,286046999.9,N
1643204275.3,286047000.9,N
1643204295.1,286047001.1,N
1643204315.9,286047000.3,N
1643204335.7,286047002.3,N
1643204355.5,286047002.7,N
1643204375.4,286047002.1,N
1643204395.2,286047002.2,N
1643204415.0,286047000.9,N
1643204415.9,286047000.9,N
1643204435.8,286046999.9,N
1643204455.6,286047002.7,N
1643204475.5,286047002.3,N
1643204495.3,286047002.5,N
1643204515.1,286047002.6,N
1643204535.9,286047002.6,N
1643204555.7,286047002.2,N
1643204575.5,286047001.8,N
1643204595.4,286047001.5,N
1643204615.2,286047001.6,N
1643204635.1,286047001.7,N
1643204636.0,286047001.7,N
1643204655.8,286047003.0,N
1643204675.6,286047003.5,N
1643204695.5,286047003.3,N
1643204715.3,286047003.1,N
1643204735.1,286047003.1,N
1643204755.9,286047001.5,N
1643204775.7,286047002.4,N
1643204795.6,286047001.6,N
1643204815.4,286047001.5,N
1643204835.2,286047002.1,N
1643204855.1,286047002.6,Y
1643204856.0,286047002.6,P
1643204875.8,286047000.8,N
1643204895.7,286047000.8,N
1643204915.5,286047000.3,N
1643204935.3,286047002.8,Y
1643204955.2,286046998.8,P
1643204975.0,286047000.9,N
1643204975.9,286047000.9,N
1643204995.8,286047000.8,N
1643205015.6,286047001.2,N
1643205035.4,286046998.7,N
1643205055.3,286046999.6,N
1643205075.1,286046999.4,N
1643205095.8,286046998.8,N
1643205115.7,286046998.9,N
1643205135.5,286046998.5,N
1643205155.4,286047000.2,N
1643205175.2,286047001.1,N
1643205195.0,286047001.1,N
1643205195.9,286047001.1,N
1643205215.8,286046998.7,N
1643205235.6,286047000.6,N
1643205255.4,286047000.4,N
1643205275.3,286047001.0,N
1643205295.1,286046999.0,N
1643205315.9,286047000.7,N
1643205335.7,286046998.8,N
1643205355.5,286047000.9,N
1643205375.4,286047000.6,N
1643205395.2,286047000.8,N
1643205415.1,286047000.2,N
1643205416.0,286047000.2,N
1643205435.8,286046999.7,N
1643205455.6,286047000.0,N
1643205475.5,286047001.2,N
1643205495.3,286047000.3,N
1643205515.1,286047000.7,N
1643205535.9,286047000.4,N
1643205555.7,286047000.5,N
1643205575.6,286046998.1,N
1643205595.4,286047001.9,N
